Theta_e
306 305 306 305 305 305 305 306 305 305 305 305 304 304 303 303 303 302 302 303 305 305 306 308 309 316 316 316 323 328 328 327 327 331 327 329 331 331 327 322 323 324 322 322
303 306 305 305 305 306 306 306 305 304 305 305 304 304 303 303 302 302 301 301 301 304 306 306 307 310 315 320 325 327 327 328 326 326 328 329 329 330 330 326 324 325 324 323
305 307 305 306 306 306 306 307 306 306 304 304 303 305 303 303 303 302 301 300 300 300 302 304 305 306 308 310 317 323 326 327 326 326 326 327 327 328 328 325 324 326 325 325
305 305 305 305 307 306 308 306 306 306 305 306 302 304 305 303 303 302 301 299 299 299 301 302 304 305 306 307 308 312 320 326 328 327 328 327 327 329 329 327 328 327 327 326
305 305 306 306 306 305 307 304 306 306 306 302 304 300 303 301 303 302 300 299 298 298 298 299 300 303 304 305 306 308 311 318 324 325 327 326 327 327 327 329 326 326 326 327
302 303 305 306 305 305 304 303 300 299 300 296 303 301 302 305 304 301 300 298 298 297 296 297 299 301 302 304 305 306 307 311 319 325 324 327 325 326 327 327 328 328 328 328
298 302 303 305 305 304 302 297 293 297 296 299 302 303 304 303 302 300 299 298 297 296 296 296 296 298 300 301 303 304 305 307 310 317 324 325 326 325 325 325 325 326 327 327
293 299 302 303 305 307 305 305 297 300 303 301 302 305 305 302 301 299 298 298 297 297 296 296 295 295 296 298 299 301 304 305 306 310 315 323 326 326 324 324 324 324 325 325
301 296 298 304 304 305 302 301 306 300 298 302 301 303 303 301 299 299 298 298 297 296 296 296 295 294 295 297 297 298 302 304 305 306 309 314 317 324 323 323 323 323 323 323
298 300 295 301 302 302 304 304 299 296 299 300 300 301 303 302 301 299 298 298 297 296 296 296 295 296 295 297 297 298 301 303 305 306 306 309 314 315 317 320 321 322 322 323
302 301 296 296 303 305 304 299 304 305 305 303 302 300 302 301 300 299 298 297 297 296 295 296 295 296 295 295 297 298 302 303 304 307 307 307 308 311 316 321 322 323 323 324
302 301 300 295 296 301 304 304 304 298 298 300 302 301 300 300 299 298 297 297 296 296 296 296 296 296 296 295 296 298 301 304 306 307 309 308 310 314 317 321 322 322 322 322
300 294 295 296 297 301 304 305 305 303 303 297 302 299 299 299 299 298 297 297 297 297 297 297 296 296 296 296 296 297 298 300 304 307 309 310 315 317 318 321 321 321 320 322
300 294 294 300 300 299 302 301 305 305 297 296 299 294 293 291 298 298 298 298 297 297 296 296 296 296 296 296 296 297 298 299 302 304 308 310 313 315 318 320 320 320 321 321
299 292 292 296 297 299 301 302 302 303 302 302 294 296 293 294 295 298 297 297 297 296 296 296 295 295 296 297 298 298 298 298 300 303 304 308 309 311 315 317 318 319 319 319
297 293 291 290 295 302 303 303 303 302 302 303 302 302 297 300 299 297 299 297 298 296 294 295 295 295 295 296 296 297 298 297 299 300 301 303 305 307 313 312 313 315 316 316
297 292 287 288 289 288 296 297 302 303 298 298 299 299 298 297 299 298 301 298 297 296 294 294 295 294 294 295 296 296 295 298 296 298 299 299 299 302 306 309 310 310 311 310
296 294 294 293 289 294 298 298 299 299 297 298 298 296 299 300 300 301 301 301 298 296 295 295 294 294 294 294 295 296 296 295 295 295 295 295 296 296 298 298 299 298 298 299
296 296 286 295 297 295 296 300 299 302 301 299 300 299 301 301 300 301 301 301 298 296 295 295 295 294 294 294 294 294 295 296 294 294 294 295 295 295 295 296 296 296 296 296
296 294 290 286 295 289 297 301 301 301 302 300 301 300 300 300 298 294 299 299 297 297 296 295 295 295 295 295 294 294 295 294 295 294 294 294 294 295 294 295 295 295 295 295
296 296 291 292 295 292 294 301 301 300 303 302 303 302 301 298 300 298 298 297 296 296 296 296 296 295 295 295 295 294 294 294 294 294 293 294 294 294 294 294 294 294 294 294
293 293 286 289 291 292 296 300 302 302 304 304 304 304 302 302 301 300 298 297 296 295 296 296 296 296 295 295 295 294 294 294 294 294 293 294 293 293 293 293 293 293 293 293
291 292 290 291 293 295 300 303 304 304 304 305 305 305 304 302 301 299 298 297 296 295 295 296 296 296 295 295 295 294 293 293 293 293 293 293 293 292 292 292 292 293 293 293
289 292 291 291 294 294 297 302 304 304 305 305 305 304 302 301 301 301 299 298 297 295 295 295 296 296 296 295 295 294 293 293 293 293 293 292 292 292 292 292 292 292 292 292
291 291 287 290 292 294 296 297 300 303 304 304 305 304 302 301 301 301 300 298 297 296 294 294 295 296 296 295 295 295 294 293 293 293 293 292 292 292 292 292 292 292 292 291
292 290 293 294 297 298 299 300 300 299 302 304 303 304 303 302 301 300 299 298 297 296 294 294 294 295 295 296 295 295 295 293 293 293 292 292 292 292 292 291 291 291 291 291
Wind_Speed
8 8 6 5 4 2 2 1 3 3 2 6 6 8 10 20 31 27 27 27 21 19 15 14 14 4 13 17 19 23 26 25 30 39 39 45 46 40 37 33 31 27 23 24
6 6 7 4 4 3 3 2 5 5 4 3 5 5 7 15 16 21 23 28 29 23 20 19 16 13 10 3 14 19 21 25 28 30 33 42 43 45 38 33 29 29 28 26
5 3 8 4 6 6 2 3 3 3 6 3 3 3 4 4 14 18 24 24 29 29 27 24 20 17 14 12 6 10 16 20 24 29 31 33 25 29 39 36 35 35 34 31
2 6 5 6 3 4 2 1 3 5 4 2 3 2 2 5 5 18 23 28 30 32 30 26 23 19 17 14 11 8 8 11 15 22 28 33 32 37 36 24 31 37 37 35
3 6 6 5 3 3 4 6 3 2 2 2 6 4 1 6 9 17 22 25 26 28 30 30 27 22 20 18 14 11 8 8 15 15 23 26 31 33 34 35 28 34 34 39
2 3 2 2 4 1 6 2 4 4 2 3 4 3 3 5 6 10 18 22 25 28 28 29 27 24 20 17 17 14 12 8 10 14 18 25 24 27 31 31 33 35 36 34
7 4 5 5 4 5 7 5 3 4 5 4 2 2 2 2 2 7 17 23 25 26 29 32 33 30 26 22 19 17 16 13 11 13 16 19 24 25 27 27 29 32 32 33
3 6 6 8 3 4 4 3 3 2 3 4 4 2 3 2 5 14 17 19 21 25 27 32 33 31 30 25 22 19 18 17 15 13 16 19 19 23 26 26 26 27 29 30
4 5 5 3 2 2 6 4 2 3 3 1 3 2 3 3 5 18 21 23 25 28 31 31 31 33 30 27 24 21 18 15 17 17 16 18 24 24 26 26 26 27 27 28
1 5 2 5 2 2 2 4 4 3 3 4 4 4 3 8 12 11 16 20 24 27 28 29 30 30 28 25 22 20 17 17 18 19 20 20 18 23 27 26 25 25 25 24
1 2 6 2 3 2 4 4 2 1 1 1 3 4 2 5 6 8 12 14 19 24 25 27 28 26 25 24 22 20 17 16 17 16 19 21 22 20 20 25 24 22 21 23
2 1 4 7 5 1 2 2 1 3 5 1 2 4 2 4 4 7 10 14 17 19 22 26 27 28 27 26 23 19 16 13 13 13 13 15 15 16 16 19 20 19 19 19
4 1 3 7 4 3 1 2 1 2 1 3 2 5 4 2 5 6 10 14 18 18 21 24 26 28 28 28 25 20 16 12 8 7 9 8 11 15 17 18 20 20 17 17
4 2 5 5 5 2 3 3 4 2 2 2 6 6 4 5 5 9 12 12 15 17 18 21 24 26 27 28 28 25 21 17 10 7 3 3 9 11 14 17 16 13 13 12
3 3 2 7 8 3 7 9 8 10 8 5 4 5 5 6 8 9 9 11 13 15 17 20 22 23 23 25 28 26 23 19 15 15 12 11 10 9 10 8 9 8 8 8
2 2 1 5 5 4 10 13 11 12 12 10 8 15 7 10 8 10 10 9 10 11 12 14 18 20 22 21 23 25 26 26 20 17 18 15 15 15 12 11 10 5 5 5
3 2 3 5 3 5 6 9 14 8 4 6 6 7 5 5 13 15 10 6 7 8 10 13 16 17 19 19 19 20 21 20 21 19 17 16 14 16 15 13 9 9 7 5
4 3 1 4 6 4 5 2 3 7 6 11 2 5 11 14 15 9 10 8 5 6 5 8 13 15 17 18 17 16 17 20 20 20 19 18 21 17 18 17 16 16 13 12
1 3 1 0 3 7 4 5 6 7 7 14 15 10 14 12 10 22 16 11 6 4 2 7 11 15 15 16 18 18 18 16 18 19 19 18 18 19 17 20 19 19 17 18
4 4 3 1 1 4 5 2 6 2 5 11 24 17 16 12 1 4 6 9 6 4 1 5 8 11 11 13 15 15 16 16 18 20 19 18 16 17 18 19 18 19 18 19
4 4 4 3 5 9 8 4 8 4 5 10 27 24 24 8 12 3 9 7 5 4 2 1 4 7 10 12 13 13 14 14 16 17 16 16 15 17 16 16 16 16 17 17
8 8 4 3 3 7 12 8 6 4 3 7 23 26 30 27 12 11 8 8 6 5 4 2 1 4 6 8 10 10 10 11 12 12 12 12 14 14 14 14 14 15 15 17
4 7 6 11 7 5 29 8 21 4 7 7 21 25 24 23 22 14 14 12 9 8 7 6 4 1 2 5 7 8 8 8 8 8 8 9 11 12 12 12 13 14 16 17
5 9 3 2 5 22 25 30 27 19 12 8 13 22 23 23 21 20 17 16 14 11 9 9 8 5 3 1 2 4 5 4 5 7 6 7 8 9 10 12 14 15 16 18
5 13 6 6 14 16 25 25 34 33 25 21 15 22 25 22 21 20 20 19 17 14 13 13 12 11 8 5 3 1 3 3 4 4 5 5 6 7 9 10 12 14 16 18
14 8 6 8 14 6 7 5 10 33 35 35 24 23 28 26 24 21 21 20 19 18 16 17 15 15 14 10 7 5 2 1 1 1 2 3 4 5 6 7 10 13 17 20
Wind_Direction
25 56 33 351 15 134 148 112 322 281 312 28 23 70 37 37 47 41 35 32 32 29 29 39 38 24 236 239 247 254 250 252 264 241 230 232 229 225 226 227 227 226 232 233
28 44 328 336 6 21 25 55 342 291 299 33 18 90 94 59 55 48 32 23 18 16 19 22 26 36 42 291 244 246 246 249 258 258 247 237 233 237 228 228 227 229 233 231
74 314 325 45 23 22 10 81 337 276 328 64 15 75 47 101 56 37 31 19 15 11 4 4 6 8 5 16 359 265 251 244 250 259 266 260 267 237 226 227 227 226 230 234
34 330 13 36 41 11 339 345 283 292 11 148 27 211 25 344 2 17 13 10 4 3 1 358 353 352 349 347 347 346 285 255 247 257 262 264 260 246 237 243 250 238 231 233
277 348 358 29 354 342 280 334 318 318 88 44 0 72 265 11 341 356 357 358 357 356 354 352 349 341 335 328 321 318 319 273 251 245 256 262 262 264 265 253 264 255 241 233
353 308 326 309 303 290 303 347 31 38 57 46 302 101 347 9 334 333 343 353 354 352 353 351 347 339 331 320 310 300 295 295 249 237 241 251 262 264 263 264 261 255 247 231
337 337 323 10 5 9 14 38 354 1 13 200 315 47 277 10 339 336 335 347 354 1 358 355 352 348 339 328 313 300 285 272 269 249 232 237 252 255 259 263 267 266 264 258
37 338 2 339 66 334 330 12 132 201 342 287 308 287 180 109 27 354 351 353 360 360 357 355 350 347 343 336 325 309 290 272 262 256 246 239 238 248 252 255 262 269 272 273
3 292 313 37 1 59 318 28 290 109 18 307 273 262 240 271 349 359 356 359 0 358 358 356 354 353 348 344 337 326 307 283 272 256 249 248 243 242 247 250 254 260 268 276
227 312 267 304 352 41 122 296 16 6 19 321 302 277 251 336 340 344 355 359 352 351 356 1 2 357 353 347 339 332 326 311 290 272 253 243 244 246 244 247 252 258 268 276
112 109 290 16 29 27 353 354 348 347 144 258 308 272 235 298 332 324 339 340 337 342 348 5 9 6 4 359 349 341 334 324 314 290 263 251 242 244 238 241 247 252 265 276
88 118 277 232 255 327 289 282 296 114 293 264 177 273 148 283 303 303 317 326 335 346 357 3 14 14 15 13 5 355 345 336 328 316 290 262 254 241 225 233 234 240 252 259
169 342 346 348 360 23 242 251 257 97 204 231 172 264 203 209 278 280 307 330 343 350 357 0 11 19 22 24 19 15 4 354 352 330 299 268 225 221 224 219 225 229 243 255
129 158 173 200 209 135 293 265 240 184 164 228 239 294 293 274 251 274 304 333 341 351 355 360 6 15 25 29 27 27 29 26 29 40 81 197 198 185 207 217 221 232 244 253
104 216 213 261 255 221 254 254 255 235 231 199 246 240 240 230 228 263 301 329 338 354 357 4 10 11 20 32 33 34 33 34 52 78 85 101 112 137 149 185 212 219 227 244
87 274 117 297 314 246 274 261 253 240 242 255 260 283 218 228 216 264 286 320 336 341 354 9 16 17 19 27 35 36 39 36 38 48 75 92 110 113 116 125 118 141 140 144
141 105 44 277 342 325 302 232 201 215 205 170 190 227 194 221 213 244 272 278 315 331 350 14 21 21 25 25 29 29 47 46 46 50 50 61 69 83 101 104 113 117 123 109
140 102 90 288 345 10 250 267 216 200 227 214 218 192 212 225 227 252 265 266 290 314 353 17 23 27 32 36 45 35 34 46 55 59 59 68 75 73 81 88 88 84 83 85
227 117 48 306 277 293 300 208 181 180 277 201 209 207 225 226 263 283 257 232 244 264 353 28 30 27 29 34 38 41 44 49 51 54 58 58 67 77 75 80 82 80 78 77
104 83 114 37 175 222 245 205 198 169 292 195 195 202 185 162 197 260 165 187 211 210 59 32 26 35 29 36 41 36 41 47 53 52 54 59 61 70 68 70 74 71 70 69
174 205 194 183 253 282 244 165 148 78 241 187 195 199 183 187 205 166 173 192 202 203 182 42 32 29 31 33 36 36 41 44 50 57 55 61 63 69 73 74 76 79 76 74
173 158 186 135 214 287 174 122 179 249 265 214 196 201 200 210 207 220 200 205 211 216 211 205 6 27 29 34 41 35 38 51 57 60 60 67 70 70 74 76 80 81 79 76
240 193 179 188 214 231 188 208 213 285 277 255 209 204 207 211 215 216 213 214 219 222 222 217 221 273 16 37 35 39 42 55 62 64 62 65 68 67 68 73 75 76 73 72
237 193 223 67 248 233 231 230 243 233 240 270 244 214 208 214 216 220 217 217 220 221 220 223 223 225 232 121 35 36 40 50 62 63 61 61 62 62 62 60 62 63 65 65
189 147 184 266 276 264 261 242 238 240 241 243 245 224 220 220 220 223 222 220 220 221 222 223 218 215 216 211 213 344 23 32 46 55 52 45 45 56 62 61 64 62 62 62
185 181 182 223 209 209 247 291 260 242 238 236 234 228 223 227 231 229 227 226 226 227 228 227 219 216 212 211 218 225 235 234 200 112 59 40 41 48 55 61 64 58 55 51